| time (UTC) | temp C | wind direction | speed KPH | gust KPH | rain 1hr cm | rain 24hr cm | rain mn cm | humidity % | barometer mb |
| 20260906044442 | 12 | 0 | 0.0 | 0.0 | 0.00 | 0.03 | 0.03 | 92 | 1015.5 |
| 20260906043929 | 12 | 0 | 0.0 | 0.0 | 0.00 | 0.03 | 0.03 | 92 | 1015.6 |
| 20260906043417 | 12 | 0 | 0.0 | 0.0 | 0.00 | 0.03 | 0.03 | 92 | 1015.6 |
| 20260906042903 | 12 | 0 | 0.0 | 0.0 | 0.00 | 0.03 | 0.03 | 92 | 1015.7 |
| 20260906042350 | 12 | 0 | 0.0 | 0.0 | 0.00 | 0.03 | 0.03 | 92 | 1015.5 |
| 20260906041837 | 12 | 0 | 0.0 | 0.0 | 0.00 | 0.03 | 0.03 | 92 | 1015.5 |
| 20260906041324 | 12 | 0 | 0.0 | 0.0 | 0.00 | 0.03 | 0.03 | 92 | 1015.5 |
| 20260906040811 | 12 | 0 | 0.0 | 0.0 | 0.00 | 0.03 | 0.03 | 92 | 1015.6 |
| 20260906040258 | 12 | 0 | 0.0 | 0.0 | 0.00 | 0.03 | 0.03 | 92 | 1015.6 |
| 20260906035745 | 12 | 0 | 0.0 | 0.0 | 0.00 | 0.03 | 0.03 | 92 | 1015.5 |
| 20260906034719 | 12 | 0 | 0.0 | 0.0 | 0.00 | 0.03 | 0.03 | 91 | 1015.5 |
| 20260906034206 | 12 | 0 | 0.0 | 0.0 | 0.00 | 0.03 | 0.03 | 91 | 1015.5 |
| 20260906033653 | 12 | 0 | 0.0 | 0.0 | 0.00 | 0.03 | 0.03 | 91 | 1015.5 |
| 20260906033140 | 12 | 0 | 0.0 | 0.0 | 0.00 | 0.03 | 0.03 | 91 | 1015.4 |
| 20260906032627 | 12 | 0 | 0.0 | 0.0 | 0.00 | 0.03 | 0.03 | 91 | 1015.3 |
| 20260906032114 | 13 | 0 | 0.0 | 0.0 | 0.00 | 0.03 | 0.03 | 91 | 1015.2 |
| 20260906031601 | 13 | 0 | 0.0 | 0.0 | 0.00 | 0.03 | 0.03 | 90 | 1015.2 |
| 20260906031048 | 13 | 0 | 0.0 | 0.0 | 0.00 | 0.03 | 0.03 | 90 | 1015.3 |
| 20260906030535 | 13 | 0 | 0.0 | 0.0 | 0.00 | 0.03 | 0.03 | 90 | 1015.3 |
| 20260906030022 | 13 | 0 | 0.0 | 0.0 | 0.00 | 0.03 | 0.03 | 90 | 1015.3 |
| 20260906025509 | 14 | 0 | 0.0 | 0.0 | 0.00 | 0.18 | 0.03 | 90 | 1015.3 |
| 20260906024956 | 14 | 0 | 0.0 | 0.0 | 0.00 | 0.18 | 0.03 | 90 | 1015.3 |
| 20260906024443 | 13 | 0 | 0.0 | 0.0 | 0.00 | 0.18 | 0.03 | 89 | 1015.4 |
| 20260906023930 | 13 | 0 | 0.0 | 0.0 | 0.00 | 0.18 | 0.03 | 89 | 1015.5 |
| 20260906023417 | 14 | 0 | 0.0 | 0.0 | 0.00 | 0.18 | 0.03 | 89 | 1015.5 |
| 20260906022904 | 14 | 0 | 0.0 | 0.0 | 0.00 | 0.18 | 0.03 | 89 | 1015.4 |
| 20260906022351 | 14 | 0 | 0.0 | 0.0 | 0.00 | 0.18 | 0.03 | 88 | 1015.5 |
| 20260906021838 | 15 | 0 | 0.0 | 0.0 | 0.00 | 0.18 | 0.03 | 88 | 1015.5 |
| 20260906021325 | 15 | 0 | 0.0 | 0.0 | 0.00 | 0.18 | 0.03 | 88 | 1015.5 |
| 20260906020812 | 15 | 0 | 0.0 | 0.0 | 0.00 | 0.18 | 0.03 | 88 | 1015.6 |
| 20260906020259 | 15 | 0 | 0.0 | 0.0 | 0.00 | 0.18 | 0.03 | 88 | 1015.6 |
| 20260906015746 | 15 | 0 | 0.0 | 0.0 | 0.00 | 0.18 | 0.03 | 88 | 1015.7 |
| 20260906014720 | 15 | 0 | 0.0 | 0.0 | 0.00 | 0.18 | 0.03 | 88 | 1015.7 |
| 20260906014207 | 15 | 0 | 0.0 | 0.0 | 0.00 | 0.18 | 0.03 | 88 | 1015.7 |
| 20260906013654 | 15 | 0 | 0.0 | 0.0 | 0.00 | 0.18 | 0.03 | 88 | 1015.8 |
| 20260906013141 | 15 | 0 | 0.0 | 0.0 | 0.00 | 0.18 | 0.03 | 88 | 1015.7 |
| 20260906012628 | 16 | 0 | 0.0 | 0.0 | 0.00 | 0.18 | 0.03 | 89 | 1015.7 |
| 20260906012115 | 15 | 0 | 0.0 | 0.0 | 0.00 | 0.18 | 0.03 | 89 | 1015.7 |
| 20260906011602 | 15 | 0 | 0.0 | 0.0 | 0.00 | 0.18 | 0.03 | 89 | 1015.8 |
| 20260906011049 | 15 | 0 | 0.0 | 0.0 | 0.00 | 0.18 | 0.03 | 89 | 1015.8 |
| 20260906010536 | 15 | 0 | 0.0 | 0.0 | 0.00 | 0.18 | 0.03 | 90 | 1015.8 |
| 20260906010023 | 15 | 0 | 0.0 | 0.0 | 0.00 | 0.18 | 0.03 | 90 | 1015.8 |
| 20260906005510 | 14 | 0 | 0.0 | 0.0 | 0.00 | 0.18 | 0.03 | 90 | 1015.7 |
| 20260906004957 | 15 | 0 | 0.0 | 3.2 | 0.00 | 0.18 | 0.03 | 90 | 1015.8 |
| 20260906004444 | 14 | 0 | 0.0 | 3.2 | 0.00 | 0.18 | 0.03 | 90 | 1015.7 |
| 20260906003931 | 15 | 253 | 0.0 | 3.2 | 0.00 | 0.18 | 0.03 | 90 | 1015.7 |
| 20260906003418 | 15 | 0 | 0.0 | 0.0 | 0.00 | 0.18 | 0.03 | 90 | 1015.6 |
| 20260906002905 | 15 | 0 | 0.0 | 6.4 | 0.00 | 0.18 | 0.03 | 90 | 1015.5 |
| 20260906002352 | 15 | 302 | 0.0 | 6.4 | 0.00 | 0.18 | 0.03 | 90 | 1015.6 |
| 20260906001839 | 15 | 317 | 3.2 | 6.4 | 0.00 | 0.18 | 0.03 | 90 | 1015.5 |
| 20260906001326 | 15 | 0 | 0.0 | 9.7 | 0.00 | 0.18 | 0.03 | 90 | 1015.5 |
| 20260906000813 | 15 | 320 | 0.0 | 9.7 | 0.00 | 0.18 | 0.03 | 90 | 1015.4 |
| 20260906000300 | 15 | 295 | 1.6 | 9.7 | 0.00 | 0.18 | 0.03 | 90 | 1015.4 |
| 20260905235747 | 15 | 326 | 0.0 | 8.0 | 0.00 | 0.18 | 0.03 | 90 | 1015.4 |
| 20260905235235 | 15 | 0 | 0.0 | 0.0 | 0.00 | 0.18 | 0.03 | 91 | 1015.4 |
| 20260905234721 | 15 | 0 | 0.0 | 9.7 | 0.00 | 0.18 | 0.03 | 91 | 1015.4 |
| 20260905234208 | 15 | 302 | 0.0 | 9.7 | 0.00 | 0.18 | 0.03 | 91 | 1015.4 |
| 20260905233655 | 15 | 292 | 3.2 | 9.7 | 0.00 | 0.18 | 0.03 | 91 | 1015.5 |
| 20260905233142 | 15 | 288 | 6.4 | 9.7 | 0.00 | 0.18 | 0.03 | 91 | 1015.6 |
| 20260905232629 | 16 | 295 | 6.4 | 9.7 | 0.00 | 0.18 | 0.03 | 91 | 1015.6 |
| 20260905232116 | 15 | 313 | 6.4 | 9.7 | 0.00 | 0.18 | 0.03 | 92 | 1015.7 |
| 20260905231603 | 15 | 0 | 0.0 | 11.3 | 0.00 | 0.18 | 0.03 | 92 | 1015.8 |
| 20260905231050 | 15 | 315 | 4.8 | 11.3 | 0.00 | 0.18 | 0.03 | 92 | 1015.8 |
| 20260905230537 | 15 | 302 | 6.4 | 11.3 | 0.00 | 0.18 | 0.03 | 92 | 1015.9 |
| 20260905230024 | 15 | 306 | 3.2 | 8.0 | 0.00 | 0.18 | 0.03 | 92 | 1015.9 |
| 20260905225511 | 15 | 0 | 3.2 | 3.2 | 0.00 | 0.20 | 0.03 | 93 | 1016.0 |
| 20260905224958 | 15 | 0 | 0.0 | 8.0 | 0.00 | 0.20 | 0.03 | 93 | 1016.0 |
| 20260905224445 | 14 | 0 | 3.2 | 8.0 | 0.00 | 0.20 | 0.03 | 93 | 1016.1 |
| 20260905223932 | 14 | 277 | 0.0 | 8.0 | 0.00 | 0.20 | 0.03 | 94 | 1016.0 |
| 20260905223419 | 14 | 323 | 4.8 | 8.0 | 0.00 | 0.20 | 0.03 | 93 | 1016.1 |
| 20260905222353 | 14 | 271 | 0.0 | 11.3 | 0.00 | 0.20 | 0.03 | 93 | 1016.3 |
| 20260905220814 | 15 | 266 | 8.0 | 12.9 | 0.00 | 0.20 | 0.03 | 93 | 1016.4 |
| 20260905220301 | 14 | 289 | 8.0 | 12.9 | 0.00 | 0.20 | 0.03 | 94 | 1016.3 |
| 20260905215748 | 14 | 277 | 4.8 | 11.3 | 0.00 | 0.20 | 0.03 | 94 | 1016.3 |
| 20260905215236 | 14 | 291 | 6.4 | 11.3 | 0.00 | 0.20 | 0.03 | 94 | 1016.3 |
| 20260905214722 | 14 | 280 | 8.0 | 11.3 | 0.00 | 0.20 | 0.03 | 94 | 1016.3 |
| 20260905214209 | 14 | 285 | 6.4 | 12.9 | 0.00 | 0.20 | 0.03 | 94 | 1016.4 |
| 20260905213656 | 14 | 267 | 3.2 | 12.9 | 0.00 | 0.20 | 0.03 | 94 | 1016.4 |
| 20260905213143 | 15 | 303 | 8.0 | 12.9 | 0.00 | 0.20 | 0.03 | 94 | 1016.4 |
| 20260905212630 | 14 | 302 | 4.8 | 11.3 | 0.00 | 0.20 | 0.03 | 94 | 1016.4 |
| 20260905212117 | 14 | 285 | 4.8 | 9.7 | 0.00 | 0.20 | 0.03 | 94 | 1016.5 |
| 20260905211604 | 14 | 305 | 4.8 | 11.3 | 0.00 | 0.20 | 0.03 | 94 | 1016.5 |
| 20260905211051 | 14 | 284 | 8.0 | 11.3 | 0.00 | 0.20 | 0.03 | 94 | 1016.5 |
| 20260905210538 | 15 | 275 | 8.0 | 11.3 | 0.00 | 0.20 | 0.03 | 94 | 1016.5 |
| 20260905210025 | 14 | 261 | 4.8 | 12.9 | 0.00 | 0.20 | 0.03 | 94 | 1016.5 |
| 20260905205512 | 14 | 0 | 0.0 | 12.9 | 0.00 | 0.20 | 0.03 | 94 | 1016.5 |
| 20260905204959 | 14 | 0 | 3.2 | 12.9 | 0.00 | 0.20 | 0.03 | 94 | 1016.6 |
| 20260905204445 | 14 | 330 | 6.4 | 11.3 | 0.00 | 0.20 | 0.03 | 94 | 1016.6 |
| 20260905203932 | 14 | 303 | 6.4 | 11.3 | 0.00 | 0.20 | 0.03 | 94 | 1016.5 |
| 20260905203419 | 14 | 302 | 3.2 | 11.3 | 0.00 | 0.20 | 0.03 | 94 | 1016.5 |
| 20260905202906 | 15 | 301 | 1.6 | 11.3 | 0.00 | 0.20 | 0.03 | 94 | 1016.6 |
| 20260905200815 | 14 | 292 | 4.8 | 12.9 | 0.00 | 0.20 | 0.03 | 95 | 1016.7 |
| 20260905200301 | 14 | 299 | 9.7 | 12.9 | 0.00 | 0.20 | 0.03 | 95 | 1016.7 |
| 20260905195748 | 14 | 291 | 8.0 | 11.3 | 0.00 | 0.20 | 0.03 | 95 | 1016.7 |
| 20260905195235 | 13 | 291 | 8.0 | 11.3 | 0.00 | 0.20 | 0.03 | 95 | 1016.7 |
| 20260905194723 | 13 | 298 | 0.0 | 11.3 | 0.00 | 0.20 | 0.03 | 95 | 1016.8 |
| 20260905194209 | 14 | 291 | 9.7 | 11.3 | 0.00 | 0.20 | 0.03 | 94 | 1016.8 |
| 20260905193656 | 14 | 289 | 3.2 | 11.3 | 0.00 | 0.20 | 0.03 | 94 | 1016.8 |
| 20260905193143 | 15 | 309 | 11.3 | 14.5 | 0.00 | 0.20 | 0.03 | 94 | 1016.8 |
| 20260905192630 | 14 | 301 | 9.7 | 14.5 | 0.00 | 0.20 | 0.03 | 94 | 1016.8 |
| 20260905192117 | 15 | 308 | 8.0 | 14.5 | 0.00 | 0.20 | 0.03 | 95 | 1016.8 |
| 20260905191604 | 15 | 312 | 4.8 | 14.5 | 0.00 | 0.20 | 0.03 | 95 | 1016.8 |
| 20260905191051 | 15 | 235 | 6.4 | 14.5 | 0.00 | 0.20 | 0.03 | 95 | 1016.8 |
| 20260905190538 | 14 | 309 | 6.4 | 12.9 | 0.00 | 0.20 | 0.03 | 95 | 1016.7 |
| 20260905185512 | 14 | 333 | 0.0 | 11.3 | 0.00 | 0.23 | 0.03 | 95 | 1016.8 |
| 20260905184959 | 14 | 298 | 3.2 | 11.3 | 0.00 | 0.23 | 0.03 | 96 | 1016.7 |
| 20260905184446 | 13 | 0 | 0.0 | 12.9 | 0.00 | 0.23 | 0.03 | 95 | 1016.7 |
| 20260905183934 | 13 | 319 | 1.6 | 12.9 | 0.00 | 0.23 | 0.03 | 95 | 1016.8 |
| 20260905183420 | 13 | 317 | 3.2 | 12.9 | 0.00 | 0.23 | 0.03 | 95 | 1016.8 |
| 20260905182907 | 13 | 308 | 1.6 | 9.7 | 0.00 | 0.23 | 0.03 | 95 | 1016.7 |
| 20260905182354 | 13 | 0 | 0.0 | 6.4 | 0.00 | 0.23 | 0.03 | 95 | 1016.7 |
| 20260905181843 | 13 | 0 | 0.0 | 6.4 | 0.00 | 0.23 | 0.03 | 95 | 1016.7 |
| 20260905180815 | 13 | 0 | 0.0 | 4.8 | 0.00 | 0.23 | 0.03 | 96 | 1016.7 |
| 20260905180303 | 13 | 271 | 0.0 | 4.8 | 0.00 | 0.23 | 0.03 | 96 | 1016.8 |
| 20260905175749 | 13 | 0 | 0.0 | 4.8 | 0.00 | 0.25 | 0.03 | 95 | 1016.8 |
| 20260905174723 | 13 | 0 | 0.0 | 0.0 | 0.00 | 0.25 | 0.03 | 96 | 1016.8 |
| 20260905174210 | 13 | 0 | 0.0 | 0.0 | 0.00 | 0.25 | 0.03 | 95 | 1016.8 |
| 20260905173657 | 13 | 0 | 0.0 | 0.0 | 0.00 | 0.25 | 0.03 | 96 | 1016.8 |
| 20260905173144 | 13 | 0 | 0.0 | 8.0 | 0.00 | 0.25 | 0.03 | 95 | 1016.7 |
| 20260905172631 | 13 | 0 | 0.0 | 8.0 | 0.00 | 0.25 | 0.03 | 95 | 1016.7 |
| 20260905171605 | 13 | 0 | 0.0 | 0.0 | 0.00 | 0.25 | 0.03 | 96 | 1016.6 |
| 20260905171052 | 13 | 0 | 0.0 | 0.0 | 0.00 | 0.25 | 0.03 | 96 | 1016.6 |
| 20260905170539 | 12 | 0 | 0.0 | 0.0 | 0.00 | 0.25 | 0.03 | 96 | 1016.6 |
| 20260905170026 | 13 | 0 | 0.0 | 0.0 | 0.00 | 0.25 | 0.03 | 96 | 1016.6 |
| 20260905165515 | 12 | 0 | 0.0 | 0.0 | 0.00 | 0.38 | 0.03 | 96 | 1016.6 |
| 20260905165051 | 12 | 0 | 0.0 | 0.0 | 0.00 | 0.38 | 0.03 | 96 | 1016.6 |
| 20260905165000 | 12 | 0 | 0.0 | 0.0 | 0.00 | 0.38 | 0.03 | 96 | 1016.6 |
| 20260905164447 | 12 | 0 | 0.0 | 0.0 | 0.00 | 0.38 | 0.03 | 96 | 1016.6 |
| 20260905163934 | 12 | 0 | 0.0 | 0.0 | 0.00 | 0.38 | 0.03 | 95 | 1016.7 |
| 20260905163421 | 12 | 0 | 0.0 | 0.0 | 0.00 | 0.38 | 0.03 | 95 | 1016.7 |
| 20260905162909 | 13 | 0 | 0.0 | 0.0 | 0.00 | 0.38 | 0.03 | 95 | 1016.6 |
| 20260905162355 | 12 | 0 | 0.0 | 0.0 | 0.00 | 0.38 | 0.03 | 95 | 1016.6 |
| 20260905161843 | 13 | 0 | 0.0 | 0.0 | 0.00 | 0.38 | 0.03 | 96 | 1016.6 |
| 20260905161332 | 12 | 0 | 0.0 | 0.0 | 0.00 | 0.38 | 0.03 | 95 | 1016.6 |
| 20260905160816 | 13 | 0 | 0.0 | 0.0 | 0.00 | 0.38 | 0.03 | 95 | 1016.6 |
| 20260905160303 | 13 | 0 | 0.0 | 0.0 | 0.00 | 0.38 | 0.03 | 95 | 1016.6 |
| 20260905155750 | 13 | 0 | 0.0 | 0.0 | 0.00 | 0.48 | 0.03 | 96 | 1016.6 |
| 20260905155237 | 13 | 0 | 0.0 | 0.0 | 0.00 | 0.48 | 0.03 | 95 | 1016.6 |
| 20260905154724 | 13 | 0 | 0.0 | 0.0 | 0.00 | 0.48 | 0.03 | 95 | 1016.6 |
| 20260905154211 | 13 | 0 | 0.0 | 0.0 | 0.00 | 0.48 | 0.03 | 95 | 1016.7 |
| 20260905153658 | 13 | 0 | 0.0 | 0.0 | 0.00 | 0.48 | 0.03 | 95 | 1016.6 |
| 20260905153145 | 13 | 0 | 0.0 | 0.0 | 0.00 | 0.48 | 0.03 | 95 | 1016.6 |
| 20260905152632 | 13 | 0 | 0.0 | 0.0 | 0.00 | 0.48 | 0.03 | 95 | 1016.5 |
| 20260905151606 | 12 | 0 | 0.0 | 0.0 | 0.00 | 0.48 | 0.03 | 95 | 1016.5 |
| 20260905151053 | 13 | 0 | 0.0 | 0.0 | 0.00 | 0.48 | 0.03 | 95 | 1016.5 |
| 20260905150540 | 13 | 0 | 0.0 | 0.0 | 0.00 | 0.48 | 0.03 | 95 | 1016.5 |
| 20260905150027 | 12 | 0 | 0.0 | 0.0 | 0.00 | 0.48 | 0.03 | 95 | 1016.5 |
| 20260905145514 | 12 | 0 | 0.0 | 0.0 | 0.00 | 0.56 | 0.03 | 96 | 1016.5 |
| 20260905145001 | 12 | 0 | 0.0 | 0.0 | 0.00 | 0.56 | 0.03 | 96 | 1016.5 |
| 20260905143937 | 12 | 0 | 0.0 | 0.0 | 0.00 | 0.56 | 0.03 | 96 | 1016.4 |
| 20260905143422 | 12 | 0 | 0.0 | 0.0 | 0.00 | 0.56 | 0.03 | 96 | 1016.4 |
| 20260905142910 | 12 | 0 | 0.0 | 0.0 | 0.00 | 0.56 | 0.03 | 96 | 1016.4 |
| 20260905142356 | 12 | 0 | 0.0 | 0.0 | 0.00 | 0.56 | 0.03 | 96 | 1016.3 |
| 20260905141843 | 12 | 0 | 0.0 | 0.0 | 0.00 | 0.56 | 0.03 | 96 | 1016.3 |
| 20260905141332 | 12 | 0 | 0.0 | 0.0 | 0.00 | 0.56 | 0.03 | 96 | 1016.2 |
| 20260905140817 | 12 | 0 | 0.0 | 0.0 | 0.00 | 0.56 | 0.03 | 96 | 1016.2 |
| 20260905140304 | 12 | 0 | 0.0 | 0.0 | 0.00 | 0.56 | 0.03 | 95 | 1016.3 |
| 20260905135751 | 12 | 0 | 0.0 | 0.0 | 0.00 | 0.71 | 0.03 | 95 | 1016.3 |
| 20260905135238 | 12 | 0 | 0.0 | 0.0 | 0.00 | 0.71 | 0.03 | 95 | 1016.3 |
| 20260905134725 | 12 | 0 | 0.0 | 0.0 | 0.00 | 0.71 | 0.03 | 96 | 1016.3 |
| 20260905134212 | 12 | 0 | 0.0 | 0.0 | 0.00 | 0.71 | 0.03 | 95 | 1016.2 |
| 20260905133659 | 12 | 0 | 0.0 | 0.0 | 0.00 | 0.71 | 0.03 | 96 | 1016.2 |
| 20260905133146 | 12 | 0 | 0.0 | 0.0 | 0.00 | 0.71 | 0.03 | 95 | 1016.2 |
| 20260905132633 | 12 | 0 | 0.0 | 0.0 | 0.00 | 0.71 | 0.03 | 95 | 1016.1 |
| 20260905131607 | 12 | 0 | 0.0 | 0.0 | 0.00 | 0.71 | 0.03 | 95 | 1016.1 |
| 20260905131054 | 12 | 0 | 0.0 | 0.0 | 0.00 | 0.71 | 0.03 | 95 | 1016.1 |
| 20260905130541 | 12 | 0 | 0.0 | 0.0 | 0.00 | 0.71 | 0.03 | 95 | 1016.2 |
| 20260905130028 | 12 | 0 | 0.0 | 0.0 | 0.00 | 0.71 | 0.03 | 95 | 1016.2 |
| 20260905125515 | 12 | 0 | 0.0 | 0.0 | 0.00 | 0.86 | 0.03 | 95 | 1016.1 |
| 20260905125002 | 12 | 0 | 0.0 | 0.0 | 0.00 | 0.86 | 0.03 | 95 | 1016.1 |
| 20260905123936 | 12 | 0 | 0.0 | 0.0 | 0.00 | 0.86 | 0.03 | 95 | 1016.0 |
| 20260905123423 | 12 | 0 | 0.0 | 0.0 | 0.00 | 0.86 | 0.03 | 95 | 1016.1 |
| 20260905122910 | 12 | 0 | 0.0 | 0.0 | 0.00 | 0.86 | 0.03 | 95 | 1016.1 |
| 20260905122357 | 12 | 0 | 0.0 | 0.0 | 0.00 | 0.86 | 0.03 | 95 | 1016.0 |
| 20260905121844 | 12 | 0 | 0.0 | 0.0 | 0.03 | 0.86 | 0.03 | 95 | 1016.0 |
| 20260905121331 | 12 | 0 | 0.0 | 0.0 | 0.03 | 0.86 | 0.03 | 95 | 1015.9 |
| 20260905120305 | 12 | 0 | 0.0 | 0.0 | 0.03 | 0.86 | 0.03 | 95 | 1015.9 |
| 20260905115752 | 12 | 0 | 0.0 | 0.0 | 0.03 | 1.50 | 0.03 | 95 | 1015.9 |
| 20260905115239 | 12 | 0 | 0.0 | 0.0 | 0.03 | 1.50 | 0.03 | 95 | 1015.9 |
| 20260905114726 | 12 | 0 | 0.0 | 0.0 | 0.03 | 1.50 | 0.03 | 95 | 1015.9 |
| 20260905114213 | 12 | 0 | 0.0 | 0.0 | 0.03 | 1.50 | 0.03 | 95 | 1015.9 |
| 20260905113700 | 12 | 0 | 0.0 | 0.0 | 0.03 | 1.50 | 0.03 | 95 | 1015.9 |
| 20260905113147 | 12 | 0 | 0.0 | 0.0 | 0.03 | 1.50 | 0.03 | 95 | 1015.9 |
| 20260905112634 | 12 | 0 | 0.0 | 0.0 | 0.03 | 1.50 | 0.03 | 95 | 1015.8 |
| 20260905112121 | 12 | 0 | 0.0 | 0.0 | 0.03 | 1.50 | 0.03 | 95 | 1015.8 |
| 20260905111608 | 12 | 0 | 0.0 | 0.0 | 0.00 | 1.50 | 0.00 | 95 | 1015.8 |
| 20260905111055 | 12 | 0 | 0.0 | 0.0 | 0.00 | 1.50 | 0.00 | 95 | 1015.9 |
| 20260905110542 | 12 | 0 | 0.0 | 0.0 | 0.00 | 1.50 | 0.00 | 95 | 1015.8 |
| 20260905110029 | 12 | 0 | 0.0 | 0.0 | 0.00 | 1.50 | 0.00 | 95 | 1015.8 |
| 20260905105516 | 12 | 0 | 0.0 | 0.0 | 0.00 | 1.83 | 0.00 | 95 | 1015.8 |
| 20260905105003 | 12 | 0 | 0.0 | 0.0 | 0.00 | 1.83 | 0.00 | 95 | 1015.8 |
| 20260905104450 | 12 | 0 | 0.0 | 0.0 | 0.00 | 1.83 | 0.00 | 95 | 1015.8 |
| 20260905103937 | 12 | 0 | 0.0 | 0.0 | 0.00 | 1.83 | 0.00 | 95 | 1015.8 |
| 20260905103424 | 12 | 0 | 0.0 | 0.0 | 0.00 | 1.83 | 0.00 | 95 | 1015.8 |
| 20260905102911 | 12 | 0 | 0.0 | 0.0 | 0.00 | 1.83 | 0.00 | 95 | 1015.7 |
| 20260905102358 | 12 | 0 | 0.0 | 0.0 | 0.00 | 1.83 | 0.00 | 95 | 1015.7 |
| 20260905101845 | 12 | 0 | 0.0 | 0.0 | 0.00 | 1.83 | 0.00 | 95 | 1015.7 |
| 20260905101332 | 12 | 0 | 0.0 | 0.0 | 0.00 | 1.83 | 0.00 | 95 | 1015.7 |
| 20260905100819 | 12 | 0 | 0.0 | 0.0 | 0.00 | 1.83 | 0.00 | 95 | 1015.7 |
| 20260905100306 | 12 | 0 | 0.0 | 0.0 | 0.00 | 1.83 | 0.00 | 95 | 1015.7 |
| 20260905095753 | 12 | 0 | 0.0 | 0.0 | 0.00 | 2.01 | 0.00 | 95 | 1015.7 |
| 20260905095240 | 12 | 0 | 0.0 | 0.0 | 0.00 | 2.01 | 0.00 | 95 | 1015.7 |
| 20260905094727 | 12 | 0 | 0.0 | 0.0 | 0.00 | 2.01 | 0.00 | 95 | 1015.7 |
| 20260905094214 | 12 | 0 | 0.0 | 0.0 | 0.00 | 2.01 | 0.00 | 95 | 1015.7 |
| 20260905093701 | 12 | 0 | 0.0 | 0.0 | 0.00 | 2.01 | 0.00 | 95 | 1015.7 |
| 20260905093148 | 12 | 0 | 0.0 | 0.0 | 0.00 | 2.01 | 0.00 | 95 | 1015.6 |
| 20260905092635 | 12 | 0 | 0.0 | 0.0 | 0.00 | 2.01 | 0.00 | 95 | 1015.6 |
| 20260905092122 | 12 | 0 | 0.0 | 0.0 | 0.00 | 2.01 | 0.00 | 95 | 1015.7 |
| 20260905091610 | 12 | 0 | 0.0 | 0.0 | 0.00 | 2.01 | 0.00 | 95 | 1015.6 |
| 20260905091056 | 12 | 0 | 0.0 | 0.0 | 0.00 | 2.01 | 0.00 | 95 | 1015.5 |
| 20260905090543 | 12 | 0 | 0.0 | 0.0 | 0.00 | 2.01 | 0.00 | 95 | 1015.5 |
| 20260905090030 | 12 | 0 | 0.0 | 0.0 | 0.00 | 2.01 | 0.00 | 95 | 1015.5 |
| 20260905085517 | 12 | 0 | 0.0 | 0.0 | 0.00 | 2.06 | 0.00 | 95 | 1015.4 |
| 20260905085004 | 12 | 0 | 0.0 | 0.0 | 0.00 | 2.06 | 0.00 | 95 | 1015.5 |
| 20260905084451 | 12 | 0 | 0.0 | 0.0 | 0.00 | 2.06 | 0.00 | 95 | 1015.5 |
| 20260905083424 | 12 | 0 | 0.0 | 0.0 | 0.00 | 2.06 | 0.00 | 95 | 1015.5 |
| 20260905082912 | 12 | 0 | 0.0 | 0.0 | 0.00 | 2.06 | 0.00 | 95 | 1015.4 |
| 20260905082359 | 12 | 0 | 0.0 | 0.0 | 0.00 | 2.06 | 0.00 | 95 | 1015.4 |
| 20260905081846 | 12 | 0 | 0.0 | 0.0 | 0.00 | 2.06 | 0.00 | 95 | 1015.4 |
| 20260905081332 | 12 | 0 | 0.0 | 0.0 | 0.00 | 2.06 | 0.00 | 95 | 1015.3 |
| 20260905080820 | 12 | 0 | 0.0 | 0.0 | 0.00 | 2.06 | 0.00 | 95 | 1015.3 |
| 20260905080306 | 12 | 0 | 0.0 | 0.0 | 0.00 | 2.06 | 0.00 | 95 | 1015.3 |
| 20260905075754 | 12 | 0 | 0.0 | 0.0 | 0.00 | 2.11 | 0.00 | 95 | 1015.2 |
| 20260905075240 | 12 | 0 | 0.0 | 0.0 | 0.00 | 2.11 | 2.06 | 95 | 1015.1 |
| 20260905074729 | 12 | 0 | 0.0 | 0.0 | 0.00 | 2.11 | 2.06 | 95 | 1015.1 |
| 20260905073701 | 12 | 0 | 0.0 | 0.0 | 0.00 | 2.11 | 2.06 | 94 | 1015.1 |
| 20260905073149 | 12 | 0 | 0.0 | 0.0 | 0.00 | 2.11 | 2.06 | 94 | 1015.1 |
| 20260905072636 | 12 | 0 | 0.0 | 0.0 | 0.00 | 2.11 | 2.06 | 94 | 1015.1 |
| 20260905071609 | 12 | 0 | 0.0 | 0.0 | 0.00 | 2.11 | 2.06 | 94 | 1014.9 |
| 20260905071056 | 12 | 0 | 0.0 | 0.0 | 0.00 | 2.11 | 2.06 | 94 | 1014.9 |
| 20260905070543 | 12 | 0 | 0.0 | 0.0 | 0.00 | 2.11 | 2.06 | 94 | 1014.9 |
| 20260905070030 | 12 | 0 | 0.0 | 0.0 | 0.00 | 2.11 | 2.06 | 94 | 1014.9 |
| 20260905065517 | 12 | 0 | 0.0 | 0.0 | 0.00 | 2.64 | 2.06 | 94 | 1014.8 |
| 20260905065004 | 12 | 0 | 0.0 | 0.0 | 0.00 | 2.64 | 2.06 | 94 | 1014.8 |
| 20260905064451 | 12 | 0 | 0.0 | 0.0 | 0.00 | 2.64 | 2.06 | 94 | 1014.8 |
| 20260905063938 | 12 | 0 | 0.0 | 0.0 | 0.00 | 2.64 | 2.06 | 94 | 1014.8 |
| 20260905063425 | 12 | 0 | 0.0 | 0.0 | 0.00 | 2.64 | 2.06 | 94 | 1014.7 |
| 20260905062912 | 12 | 0 | 0.0 | 0.0 | 0.00 | 2.64 | 2.06 | 94 | 1014.7 |
| 20260905062359 | 12 | 0 | 0.0 | 0.0 | 0.00 | 2.64 | 2.06 | 94 | 1014.7 |
| 20260905061846 | 12 | 0 | 0.0 | 0.0 | 0.00 | 2.64 | 2.06 | 94 | 1014.7 |
| 20260905061333 | 12 | 0 | 0.0 | 0.0 | 0.00 | 2.64 | 2.06 | 94 | 1014.7 |
| 20260905060821 | 12 | 0 | 0.0 | 0.0 | 0.00 | 2.64 | 2.06 | 94 | 1014.6 |
| 20260905055754 | 12 | 0 | 0.0 | 0.0 | 0.00 | 2.97 | 2.06 | 94 | 1014.6 |
| 20260905055241 | 12 | 0 | 0.0 | 0.0 | 0.00 | 2.97 | 2.06 | 94 | 1014.7 |
| 20260905054728 | 12 | 0 | 0.0 | 0.0 | 0.00 | 2.97 | 2.06 | 94 | 1014.7 |
| 20260905054215 | 12 | 0 | 0.0 | 0.0 | 0.00 | 2.97 | 2.06 | 94 | 1014.6 |
| 20260905053702 | 12 | 0 | 0.0 | 0.0 | 0.00 | 2.97 | 2.06 | 94 | 1014.6 |
| 20260905053149 | 12 | 0 | 0.0 | 0.0 | 0.00 | 2.97 | 2.06 | 94 | 1014.6 |
| 20260905052636 | 12 | 0 | 0.0 | 0.0 | 0.00 | 2.97 | 2.06 | 94 | 1014.6 |
| 20260905052123 | 12 | 0 | 0.0 | 0.0 | 0.00 | 2.97 | 2.06 | 94 | 1014.6 |
| 20260905051610 | 12 | 0 | 0.0 | 0.0 | 0.00 | 2.97 | 2.06 | 94 | 1014.6 |
| 20260905051058 | 12 | 0 | 0.0 | 0.0 | 0.00 | 2.97 | 2.06 | 94 | 1014.5 |
| 20260905050544 | 12 | 0 | 0.0 | 0.0 | 0.00 | 2.97 | 2.06 | 94 | 1014.5 |
| 20260905050031 | 12 | 0 | 0.0 | 0.0 | 0.00 | 2.97 | 2.06 | 94 | 1014.5 |
| 20260905045005 | 12 | 0 | 0.0 | 0.0 | 0.00 | 3.20 | 2.06 | 94 | 1014.3 |